User: anonymous   Login
Location: Newark
(48.0000°N, 67.0000°E)
Time: 01:39:50
(UTC+00:00)
Language:

ITUPSAT 1 - Orbit

View from above orbital plane
View from above orbital plane
View from above satellite
View from above satellite

Ground track
Ground track

The orbit data is extracted from the following two-line orbital elements,

1 35935U 09051E   20092.96130265  .00000084  00000-0  30403-4 0  9991
2 35935  98.6193 274.8581 0008411  21.6927 338.4624 14.55599613558577
Epoch (UTC): 01 April 2020 23:04:16
Eccentricity: 0.0008411
inclination: 98.6193°
perigee height: 701 km
apogee height: 713 km
right ascension of ascending node: 274.8581°
argument of perigee: 21.6927°
revolutions per day: 14.55599613
mean anomaly at epoch: 338.4624°
orbit number at epoch: 55857

The dashed part of the orbit path shows where the satellite is in the earth's shadow,  

DLR